Flag for Israel Weather past 2 weeks in Rehovot, Israel

Now
79 °F

Passing clouds.


Feels Like: 81 °F
Forecast: 71 / 89 °F
Wind: 3 mph from North

Location: Ben Gurion International Airport

Current Time: Sep 23, 2014 at 10:28:30 PM

Latest Report: Sep 23, 2014 at 9:50 PM


Visibility: N/A

Pressure: 29.98 "Hg

Humidity: 70%

Dew point: 68 °F

Location of RehovotLocation

Historic Weather in Rehovot — Graph

°F

Rehovot temperature yesterday

Maximum temperature yesterday: 86 °F (at 12:20 PM)
Minimum temperature yesterday: 72 °F (at 2:20 AM)
Average temperature yesterday: 78 °F

Past Weeks' High & Low Weather Summary

 TemperatureHumidityPressure
High100 °F (Sep 17, 1:20 PM)83% (Sep 16, 4:20 AM)29.98 "Hg (Sep 16, 4:20 AM)
Low70 °F (Sep 17, 6:20 AM)20% (Sep 17, 10:50 AM)29.68 "Hg (Sep 17, 3:50 PM)
Average80 °F63%29.89 "Hg
* Reported Sep 8 9:20 PM — Sep 23 9:20 PM, Rehovot, Weather by CustomWeather, © 2014

Note: Actual official high and low records may vary slightly from our data, if they occured in-between our weather recording intervals... More about our weather records

Advertising

Rehovot weather history for previous 24 hours

 ConditionsComfort  
Time TempWeatherWind HumidityBarometerVisibility
9:20 PM
Sep 23
79 °FPassing clouds.3 mph70%29.95 "HgN/A
8:50 PM79 °FPassing clouds.5 mph70%29.95 "HgN/A
8:20 PM79 °FPassing clouds.6 mph70%29.95 "HgN/A
7:50 PM81 °FPassing clouds.7 mph66%29.95 "HgN/A
7:20 PM81 °FPassing clouds.9 mph66%29.95 "HgN/A
6:50 PM81 °FPassing clouds.10 mph66%29.92 "HgN/A
6:20 PM82 °FPassing clouds.10 mph62%29.92 "HgN/A
5:50 PM82 °FPassing clouds.12 mph62%29.92 "HgN/A
5:20 PM84 °FPassing clouds.12 mph58%29.89 "HgN/A
4:50 PM84 °FPassing clouds.12 mph58%29.89 "HgN/A
4:20 PM86 °FPassing clouds.10 mph55%29.89 "HgN/A
3:50 PM86 °FPassing clouds.13 mph55%29.89 "HgN/A
3:20 PM86 °FPassing clouds.10 mph55%29.89 "HgN/A
2:50 PM86 °FScattered clouds.12 mph55%29.89 "HgN/A
2:20 PM84 °FScattered clouds.12 mph62%29.89 "HgN/A
1:20 PM84 °FScattered clouds.10 mph62%29.92 "HgN/A
12:50 PM84 °FScattered clouds.12 mph62%29.92 "HgN/A
12:20 PM84 °FPartly sunny.9 mph58%29.92 "HgN/A
11:50 AM86 °FScattered clouds.8 mph59%29.92 "HgN/A
11:20 AM86 °FPartly sunny.7 mph59%29.92 "HgN/A
10:50 AM84 °FPartly sunny.6 mph55%29.92 "HgN/A
10:20 AM84 °FScattered clouds.2 mph58%29.92 "HgN/A
9:50 AM82 °FScattered clouds.3 mph62%29.92 "HgN/A
9:20 AM82 °FPassing clouds.3 mph58%29.92 "HgN/A
8:50 AM81 °FPassing clouds.2 mph62%29.92 "HgN/A
8:20 AM79 °FSunny.3 mph65%29.92 "Hg10 mi
7:50 AM75 °FSunny.5 mph69%29.92 "Hg10 mi
7:20 AM73 °FClear.7 mph69%29.92 "Hg10 mi
6:50 AM73 °FPassing clouds.3 mph69%29.89 "HgN/A
6:20 AM73 °FPassing clouds.5 mph69%29.89 "HgN/A
5:50 AM73 °FPassing clouds.5 mph74%29.89 "HgN/A
5:20 AM73 °FPassing clouds.6 mph74%29.89 "HgN/A
4:50 AM73 °FPassing clouds.7 mph74%29.89 "HgN/A
4:20 AM75 °FPassing clouds.6 mph69%29.89 "HgN/A
3:50 AM75 °FPassing clouds.6 mph74%29.89 "HgN/A
3:20 AM75 °FPassing clouds.3 mph74%29.89 "HgN/A
2:50 AM75 °FPassing clouds.5 mph74%29.89 "HgN/A
2:20 AM75 °FPassing clouds.7 mph74%29.89 "HgN/A
1:50 AM75 °FPassing clouds.7 mph74%29.89 "HgN/A
1:20 AM75 °FPassing clouds.5 mph74%29.92 "HgN/A
12:50 AM75 °FPassing clouds.5 mph74%29.92 "HgN/A
12:20 AM75 °FClear.8 mph69%29.92 "Hg10 mi
11:50 PM
Sep 22
75 °FClear.5 mph69%29.92 "Hg10 mi
11:20 PM75 °FClear.1 mph74%29.92 "Hg10 mi
10:50 PM77 °FClear.2 mph65%29.92 "Hg10 mi
10:20 PM77 °FClear.2 mph65%29.92 "Hg10 mi
Weather by CustomWeather, © 2014

See weather overviewHow to use our weather pages